Radiation Dose at Monitoring Post of Fukushima Daini Nuclear Power Station
Date,Time,MP-1(microSv/h),MP-2(microSv/h),MP-3(microSv/h),MP-4(microSv/h),MP-5(microSv/h),MP-6(microSv/h),MP-7(microSv/h),Wind Direction,Wind Velocity(m/s),Rain
2020/08/21,00:00,0.185,0.167,0.275,0.265,0.252,0.144,0.086,northeast,1.2,No
2020/08/21,00:10,0.183,0.169,0.279,0.263,0.250,0.145,0.088,east-northeast,1.5,No
2020/08/21,00:20,0.184,0.168,0.280,0.262,0.253,0.145,0.088,northeast,1.4,No
2020/08/21,00:30,0.185,0.167,0.275,0.266,0.256,0.144,0.087,-,CALM,No
2020/08/21,00:40,0.184,0.168,0.279,0.264,0.253,0.145,0.088,-,CALM,No
2020/08/21,00:50,0.183,0.168,0.280,0.261,0.250,0.145,0.088,-,CALM,No
2020/08/21,01:00,0.185,0.168,0.276,0.266,0.254,0.144,0.087,-,CALM,No
2020/08/21,01:10,0.185,0.169,0.276,0.264,0.254,0.145,0.088,-,CALM,No
2020/08/21,01:20,0.184,0.168,0.279,0.263,0.252,0.146,0.088,-,CALM,No
2020/08/21,01:30,0.184,0.167,0.279,0.264,0.251,0.145,0.088,north-northeast,1.3,No
2020/08/21,01:40,0.186,0.168,0.276,0.264,0.254,0.145,0.088,north-northeast,1.4,No
2020/08/21,01:50,0.184,0.169,0.280,0.263,0.252,0.145,0.089,north-northeast,2.2,No
2020/08/21,02:00,0.184,0.168,0.278,0.264,0.252,0.146,0.089,north-northeast,1.9,No
2020/08/21,02:10,0.185,0.169,0.276,0.266,0.254,0.144,0.088,north,1.6,No
2020/08/21,02:20,0.184,0.169,0.279,0.263,0.253,0.145,0.088,north,3.0,No
2020/08/21,02:30,0.183,0.168,0.279,0.263,0.250,0.145,0.088,north,2.0,No
2020/08/21,02:40,0.185,0.168,0.276,0.266,0.252,0.145,0.088,north,1.5,No
2020/08/21,02:50,0.185,0.169,0.279,0.264,0.255,0.145,0.089,north-northeast,1.3,No
2020/08/21,03:00,0.183,0.168,0.280,0.262,0.253,0.145,0.088,north-northeast,1.5,No
2020/08/21,03:10,0.186,0.170,0.276,0.266,0.250,0.144,0.087,north-northeast,1.6,No
2020/08/21,03:20,0.185,0.169,0.279,0.263,0.254,0.145,0.088,north,1.5,No
2020/08/21,03:30,0.182,0.168,0.279,0.263,0.254,0.145,0.088,north,1.7,No
2020/08/21,03:40,0.184,0.168,0.277,0.265,0.251,0.145,0.087,north,2.0,No
2020/08/21,03:50,0.185,0.168,0.278,0.263,0.251,0.144,0.088,north,2.2,No
2020/08/21,04:00,0.183,0.166,0.278,0.262,0.254,0.145,0.087,north,1.8,No
2020/08/21,04:10,0.184,0.169,0.277,0.265,0.253,0.144,0.087,north-northwest,0.7,No
2020/08/21,04:20,0.184,0.168,0.277,0.264,0.251,0.145,0.087,north-northwest,1.2,No
2020/08/21,04:30,0.184,0.167,0.278,0.262,0.253,0.145,0.088,north-northwest,1.1,No
2020/08/21,04:40,0.181,0.168,0.278,0.265,0.253,0.144,0.088,north-northwest,1.6,No
2020/08/21,04:50,0.184,0.169,0.276,0.263,0.252,0.143,0.088,north-northwest,1.1,No
2020/08/21,05:00,0.184,0.167,0.279,0.261,0.250,0.146,0.088,north-northwest,1.0,No
2020/08/21,05:10,0.183,0.168,0.279,0.265,0.254,0.145,0.087,north-northwest,2.8,No
2020/08/21,05:20,0.185,0.168,0.277,0.264,0.253,0.144,0.087,north,3.8,No
2020/08/21,05:30,0.184,0.166,0.279,0.262,0.250,0.145,0.088,north,4.3,No
2020/08/21,05:40,0.182,0.169,0.278,0.264,0.253,0.146,0.088,north-northwest,4.1,No
2020/08/21,05:50,0.182,0.169,0.277,0.265,0.254,0.145,0.087,north-northwest,3.8,No
2020/08/21,06:00,0.186,0.168,0.277,0.262,0.253,0.144,0.087,north-northwest,3.5,No
2020/08/21,06:10,0.183,0.167,0.279,0.264,0.251,0.145,0.088,north-northwest,4.0,No
2020/08/21,06:20,0.183,0.169,0.277,0.264,0.252,0.143,0.088,north-northwest,4.4,No
2020/08/21,06:30,0.184,0.167,0.274,0.262,0.253,0.144,0.087,north-northwest,4.3,No
2020/08/21,06:40,0.184,0.167,0.279,0.262,0.251,0.145,0.087,north-northwest,3.7,No
2020/08/21,06:50,0.183,0.167,0.278,0.264,0.250,0.144,0.087,north-northwest,2.5,No
2020/08/21,07:00,0.182,0.168,0.277,0.265,0.250,0.143,0.088,north-northwest,2.3,No
2020/08/21,07:10,0.182,0.170,0.275,0.263,0.249,0.145,0.087,north-northwest,2.1,No
2020/08/21,07:20,0.185,0.166,0.275,0.262,0.253,0.144,0.088,north-northwest,1.7,No
2020/08/21,07:30,0.184,0.167,0.275,0.261,0.254,0.144,0.087,north,1.0,No
2020/08/21,07:40,0.183,0.167,0.276,0.261,0.253,0.144,0.088,north,1.0,No
2020/08/21,07:50,0.182,0.167,0.275,0.261,0.252,0.143,0.088,north-northeast,0.9,No
2020/08/21,08:00,0.181,0.166,0.276,0.262,0.252,0.144,0.088,north-northeast,0.7,No
2020/08/21,08:10,0.183,0.166,0.277,0.263,0.251,0.144,0.087,northeast,1.7,No
2020/08/21,08:20,0.183,0.166,0.277,0.263,0.252,0.144,0.087,northeast,2.9,No
2020/08/21,08:30,0.181,0.166,0.277,0.262,0.250,0.145,0.087,northeast,1.7,No
2020/08/21,08:40,0.182,0.166,0.276,0.263,0.251,0.143,0.087,northeast,2.3,No
2020/08/21,08:50,0.182,0.165,0.277,0.264,0.251,0.143,0.087,northeast,1.5,No
2020/08/21,09:00,0.183,0.167,0.278,0.262,0.251,0.144,0.087,northeast,2.7,No
2020/08/21,09:10,0.182,0.166,0.277,0.264,0.252,0.144,0.087,northeast,2.7,No
2020/08/21,09:20,0.184,0.166,0.277,0.262,0.250,0.144,0.087,northeast,3.4,No
2020/08/21,09:30,0.183,0.168,0.278,0.262,0.251,0.143,0.087,north-northeast,2.5,No
2020/08/21,09:40,0.182,0.167,0.277,0.263,0.251,0.144,0.086,northeast,2.0,No
2020/08/21,09:50,0.184,0.168,0.277,0.263,0.251,0.144,0.088,northeast,2.7,No
2020/08/21,10:00,0.183,0.168,0.277,0.263,0.251,0.144,0.087,east-northeast,2.8,No
2020/08/21,10:10,0.183,0.167,0.276,0.263,0.251,0.144,0.087,east-northeast,2.8,No
2020/08/21,10:20,0.184,0.167,0.276,0.263,0.252,0.145,0.087,east-northeast,2.8,No
2020/08/21,10:30,0.183,0.167,0.276,0.262,0.251,0.143,0.087,east-northeast,2.0,No
2020/08/21,10:40,0.182,0.167,0.275,0.263,0.250,0.144,0.087,east,2.0,No
2020/08/21,10:50,0.183,0.168,0.276,0.264,0.251,0.143,0.088,east-northeast,2.0,No
2020/08/21,11:00,0.183,0.167,0.276,0.262,0.252,0.143,0.087,northeast,2.3,No
2020/08/21,11:10,0.182,0.168,0.276,0.263,0.251,0.144,0.087,east-northeast,2.4,No
2020/08/21,11:20,0.183,0.167,0.276,0.263,0.252,0.143,0.086,northeast,2.6,No
2020/08/21,11:30,0.183,0.167,0.277,0.262,0.252,0.143,0.087,northeast,2.9,No
2020/08/21,11:40,0.184,0.167,0.277,0.263,0.252,0.143,0.087,north-northeast,3.5,No
2020/08/21,11:50,0.183,0.167,0.277,0.263,0.253,0.144,0.088,north-northeast,3.9,No
2020/08/21,12:00,0.182,0.167,0.278,0.263,0.252,0.144,0.087,north-northeast,3.7,No
2020/08/21,12:10,0.184,0.166,0.277,0.262,0.251,0.144,0.087,north,3.0,No
2020/08/21,12:20,0.184,0.167,0.276,0.262,0.253,0.144,0.087,north,3.1,No
2020/08/21,12:30,0.183,0.166,0.277,0.263,0.252,0.144,0.087,north-northeast,3.0,No
2020/08/21,12:40,0.183,0.167,0.275,0.263,0.253,0.144,0.087,northeast,2.8,No
2020/08/21,12:50,0.183,0.168,0.278,0.264,0.252,0.144,0.086,northeast,1.7,No
2020/08/21,13:00,0.182,0.167,0.277,0.263,0.253,0.143,0.087,northeast,1.7,No
2020/08/21,13:10,0.182,0.168,0.278,0.264,0.252,0.144,0.088,east-northeast,1.9,No
2020/08/21,13:20,0.183,0.167,0.276,0.263,0.252,0.145,0.088,east-northeast,2.0,No
2020/08/21,13:30,0.183,0.167,0.276,0.264,0.251,0.143,0.087,northeast,2.6,No
2020/08/21,13:40,0.183,0.168,0.278,0.264,0.251,0.143,0.088,east-northeast,2.8,No
2020/08/21,13:50,0.183,0.166,0.277,0.264,0.252,0.144,0.088,east,2.0,No
2020/08/21,14:00,0.183,0.167,0.278,0.263,0.251,0.144,0.087,east,1.5,No
2020/08/21,14:10,0.183,0.168,0.278,0.264,0.252,0.144,0.087,east-northeast,2.1,No
2020/08/21,14:20,0.184,0.167,0.278,0.263,0.251,0.144,0.088,east,1.4,No
2020/08/21,14:30,0.184,0.168,0.278,0.262,0.251,0.145,0.088,east-southeast,1.4,No
2020/08/21,14:40,0.183,0.168,0.278,0.263,0.250,0.144,0.088,east-southeast,1.9,No
2020/08/21,14:50,0.183,0.167,0.279,0.262,0.250,0.144,0.087,east-southeast,1.7,No
2020/08/21,15:00,0.183,0.168,0.278,0.264,0.251,0.145,0.087,east,1.3,No
2020/08/21,15:10,0.182,0.168,0.277,0.265,0.251,0.144,0.087,east,1.0,No
2020/08/21,15:20,0.183,0.168,0.277,0.264,0.250,0.144,0.087,east,1.7,No
2020/08/21,15:30,0.183,0.167,0.277,0.262,0.250,0.144,0.087,east,1.2,No
2020/08/21,15:40,0.183,0.168,0.276,0.263,0.251,0.144,0.086,east-southeast,1.2,No
2020/08/21,15:50,0.183,0.167,0.275,0.262,0.250,0.144,0.086,east,1.5,No
2020/08/21,16:00,0.183,0.166,0.275,0.262,0.250,0.143,0.086,east,1.0,No
2020/08/21,16:10,0.183,0.167,0.276,0.261,0.252,0.144,0.086,east,1.4,No
2020/08/21,16:20,0.182,0.166,0.276,0.261,0.253,0.143,0.086,east,1.1,No
2020/08/21,16:30,0.182,0.167,0.275,0.260,0.251,0.144,0.087,east,1.3,No
2020/08/21,16:40,0.181,0.166,0.279,0.262,0.251,0.144,0.087,east-southeast,1.2,No
2020/08/21,16:50,0.182,0.166,0.279,0.265,0.251,0.142,0.086,east-southeast,0.9,No
2020/08/21,17:00,0.182,0.169,0.276,0.264,0.251,0.143,0.087,east,0.8,No
2020/08/21,17:10,0.183,0.168,0.275,0.263,0.250,0.142,0.086,east-southeast,0.7,No
2020/08/21,17:20,0.183,0.167,0.277,0.262,0.249,0.144,0.087,east,0.6,No
2020/08/21,17:30,0.184,0.166,0.280,0.264,0.249,0.144,0.087,east-northeast,0.7,No
2020/08/21,17:40,0.182,0.166,0.278,0.265,0.249,0.144,0.088,northeast,0.6,No
2020/08/21,17:50,0.181,0.168,0.275,0.264,0.250,0.143,0.087,east-northeast,1.5,No
2020/08/21,18:00,0.183,0.167,0.274,0.262,0.252,0.142,0.086,north,1.2,No
2020/08/21,18:10,0.184,0.166,0.279,0.261,0.252,0.144,0.087,-,CALM,No
2020/08/21,18:20,0.182,0.167,0.279,0.266,0.250,0.144,0.087,-,CALM,No
2020/08/21,18:30,0.181,0.167,0.276,0.265,0.251,0.143,0.086,-,CALM,No
2020/08/21,18:40,0.183,0.167,0.275,0.262,0.251,0.143,0.086,-,CALM,No
2020/08/21,18:50,0.184,0.166,0.279,0.263,0.254,0.143,0.087,-,CALM,No
2020/08/21,19:00,0.182,0.167,0.277,0.266,0.252,0.144,0.087,-,CALM,No
2020/08/21,19:10,0.181,0.168,0.276,0.264,0.250,0.144,0.086,-,CALM,No
2020/08/21,19:20,0.183,0.167,0.277,0.261,0.251,0.142,0.086,-,CALM,No
2020/08/21,19:30,0.184,0.165,0.279,0.264,0.254,0.144,0.087,west-southwest,0.8,No
2020/08/21,19:40,0.183,0.168,0.276,0.264,0.252,0.144,0.087,west,0.7,No
2020/08/21,19:50,0.181,0.167,0.275,0.261,0.249,0.144,0.087,northwest,0.8,No
2020/08/21,20:00,0.183,0.165,0.279,0.262,0.250,0.144,0.086,north-northwest,0.9,No
2020/08/21,20:10,0.184,0.168,0.278,0.265,0.252,0.145,0.086,-,CALM,No
2020/08/21,20:20,0.182,0.167,0.275,0.263,0.252,0.144,0.086,northwest,0.8,No
2020/08/21,20:30,0.181,0.167,0.278,0.261,0.248,0.142,0.086,-,CALM,No
2020/08/21,20:40,0.184,0.166,0.279,0.263,0.252,0.143,0.086,northwest,0.8,No
2020/08/21,20:50,0.183,0.169,0.277,0.265,0.252,0.144,0.087,-,CALM,No
2020/08/21,21:00,0.182,0.167,0.276,0.263,0.252,0.144,0.086,-,CALM,No
2020/08/21,21:10,0.182,0.166,0.279,0.262,0.249,0.144,0.086,-,CALM,No
2020/08/21,21:20,0.184,0.168,0.278,0.266,0.254,0.144,0.087,-,CALM,No
2020/08/21,21:30,0.182,0.167,0.276,0.264,0.252,0.144,0.087,-,CALM,No
2020/08/21,21:40,0.182,0.166,0.277,0.262,0.251,0.143,0.086,-,CALM,No
2020/08/21,21:50,0.184,0.168,0.279,0.263,0.249,0.143,0.087,-,CALM,No
2020/08/21,22:00,0.184,0.168,0.276,0.265,0.254,0.144,0.087,-,CALM,No
2020/08/21,22:10,0.182,0.167,0.275,0.263,0.253,0.144,0.087,north,0.6,No
2020/08/21,22:20,0.181,0.166,0.279,0.262,0.250,0.142,0.087,north-northeast,0.9,No
2020/08/21,22:30,0.184,0.169,0.278,0.265,0.250,0.144,0.088,-,CALM,No
2020/08/21,22:40,0.184,0.168,0.275,0.264,0.254,0.145,0.086,-,CALM,No
2020/08/21,22:50,0.182,0.166,0.277,0.262,0.251,0.144,0.087,northwest,0.7,No
2020/08/21,23:00,0.182,0.166,0.280,0.264,0.250,0.144,0.087,-,CALM,No
2020/08/21,23:10,0.184,0.168,0.278,0.264,0.252,0.145,0.087,north-northwest,0.8,No
2020/08/21,23:20,0.183,0.167,0.275,0.262,0.254,0.145,0.088,north-northwest,2.1,No
2020/08/21,23:30,0.182,0.166,0.278,0.262,0.252,0.144,0.087,north-northwest,2.8,No
2020/08/21,23:40,0.184,0.169,0.279,0.265,0.249,0.144,0.087,north-northwest,2.8,No
2020/08/21,23:50,0.185,0.168,0.277,0.264,0.252,0.145,0.088,north-northwest,3.1,No
